Location: Düngen
(52.0952°N, 10.0219°E)
Time: 14:57:30
(UTC+00:00)

Cosmos 1553 Rocket - Pass Details

Date: 11 March 2026
Orbit: 941 x 1007 km, 82.9° (Epoch: 14 April)

Event Time Altitude Azimuth Distance (km) Brightness Sun altitude
Rises 18:51:57 0° 348° (NNW) 3,625 7.4 -15.2°
Reaches altitude 10° 18:54:27 10° 346° (NNW) 2,680 6.7 -15.6°
Maximum altitude 19:00:31 70° 265° (W) 1,017 4.3 -16.5°
Drops below altitude 10° 19:06:38 10° 183° (S) 2,697 6.2 -17.4°
Sets 19:09:09 0° 181° (S) 3,649 6.8 -17.8°
